* Astronomy

Members Login
Username 
 
Password 
    Remember Me  
Post Info TOPIC: Asteroid 2011 EW29


L

Posts: 131433
Date:
Asteroid 2011 EW29
Permalink  
 


Orbital elements:
2011 EW29 Earth MOID = 0.1146 AU
Epoch 2011 Feb. 8.0 TT = JDT 2455600.5 MPC
M 336.05321 (2000.0) P Q
n 0.47846296 Peri. 179.85757 -0.98134532 +0.18185488
a 1.6189639 Node 11.21913 -0.17670450 -0.72537849
e 0.3120119 Incl. 18.69755 -0.07574223 -0.66389370
P 2.06 H 21.0 G 0.15 U 8

MPEC 2011 - E51


__________________
Page 1 of 1  sorted by
 
Quick Reply

Please log in to post quick replies.



Create your own FREE Forum
Report Abuse
Powered by ActiveBoard